Regional Weather Roundup
Issued by NWS

Home | Current Version | Previous Version | Graphics & Text | Print | Product List | Glossary On
Versions: 1 2 3 4 5 6 7 8 9 10 11 12 13 14 15 16 17 18 19 20 21 22 23 24 25 26 27 28 29 30 31 32 33 34 35 36 37 38 39 40 41 42 43 44 45 46 47 48 49 50
000
ASUS43 KLSX 111407
RWRMO

WEATHER SUMMARY FOR MISSOURI
NATIONAL WEATHER SERVICE SPRINGFIELD MO
800 AM CST THU FEB 11 2016

NOTE: "FAIR" INDICATES FEW OR NO CLOUDS BELOW 12,000 FEET WITH NO
       SIGNIFICANT WEATHER AND/OR OBSTRUCTIONS TO VISIBILITY.
       CURRENT SKY AND/OR WEATHER CONDITIONS ARE NOT AVAILABLE FOR
       CHILLICOTHE AND FARMINGTON.

MOZ001>031-035>038-043-044-053-054-111500-
...NORTHERN AND WESTERN MISSOURI...

CITY           SKY/WX    TMP DP  RH WIND       PRES   REMARKS
KANSAS CTY INT CLOUDY    21  18  88 NE5       30.26R WCI  15
KANSAS C DTWN  PTCLDY    23  19  85 NE6       30.28R WCI  16
LEE`S SUMMIT   CLEAR     22  18  85 NE12      30.27R WCI  10
ST JOSEPH      PTCLDY    22  17  81 NE7       30.30R WCI  13
CHILLICOTHE      N/A     20  14  77 NE9       30.33R WCI   9
KIRKSVILLE     CLOUDY    12   4  70 NE7       30.32R WCI   1

$$
MOZ066>068-077>081-088>096-101>105-111500-
...SOUTHWEST MISSOURI...

CITY           SKY/WX    TMP DP  RH WIND       PRES   REMARKS
SPRINGFIELD    CLEAR     26  15  63 E9        30.16R WCI  17
JOPLIN         CLEAR     26  20  77 NE7       30.19R WCI  18

$$
MOZ032>034-039>042-045>050-055>058-069>072-111500-
...CENTRAL MISSOURI...

CITY           SKY/WX    TMP DP  RH WIND       PRES   REMARKS
COLUMBIA       CLOUDY    21  15  78 NE10      30.28R WCI  10
JEFFERSON CITY CLOUDY    24  18  77 NE8       30.30R WCI  15
ROLLA          CLOUDY    21  18  88 NE8       30.22R WCI  11
SEDALIA        CLOUDY    24  18  77 NE8       30.29R WCI  15
WHITEMAN AFB   MOCLDY    22  19  88 NE8       30.27R WCI  12
WARRENSBURG    PTCLDY    21  19  93 NE7       30.28R WCI  13
OSAGE BEACH    CLOUDY    21  16  79 NE7       30.25R WCI  13

$$
MOZ051-052-059>065-111500-
...EAST CENTRAL MISSOURI...

CITY           SKY/WX    TMP DP  RH WIND       PRES   REMARKS
ST LOUIS INTL  CLOUDY    23  16  74 NE9       30.31R WCI  13
SPIRIT OF STL  CLOUDY    22  16  78 NE7       30.30R WCI  13
ST CHARLES     CLOUDY    21  16  81 NE9       30.32R WCI  11

$$
MOZ072>076-082>087-097>100-106>115-111500-
...SOUTH CENTRAL AND SOUTHEAST MISSOURI...

CITY           SKY/WX    TMP DP  RH WIND       PRES   REMARKS
CAPE GIRARDEAU MOSUNNY   26  20  77 NE14      30.26R WCI  14
FARMINGTON     CLOUDY    23  20  88 NE7       30.25R WCI  15
POPLAR BLUFF   SUNNY     26  19  74 NE9       30.23R WCI  17
WEST PLAINS    SUNNY     23  13  65 NE8       30.19R WCI  14

$$


USA.gov is the U.S. government's official web portal to all federal, state and local government web resources and services.